Location: N�rnberg
(49.4489°N, 11.0797°E)
Time: 13:44:41
(UTC+01:00)

ISS - Visible Passes

Search period start: 21 January 2018 00:00
Search period end: 31 January 2018 00:00
Orbit: 402 x 407 km, 51.6° (Epoch: 21 January)

Date Brightness Start Highest point End Pass type
(mag) Time Alt. Az. Time Alt. Az. Time Alt. Az.
25 Jan -0.7 19:46:17 10° SW 19:46:19 10° SW 19:46:19 10° SW visible
26 Jan -2.1 18:54:29 10° SSW 18:56:26 21° SSE 18:56:26 21° SSE visible
27 Jan -1.6 18:03:10 10° S 18:04:59 14° SE 18:06:28 11° ESE visible
27 Jan -1.6 19:37:44 10° WSW 19:39:08 23° SW 19:39:08 23° SW visible
28 Jan -3.3 18:45:34 10° SW 18:48:40 41° SSE 18:49:05 39° SE visible
29 Jan -2.4 17:53:38 10° SSW 17:56:25 26° SE 17:58:58 12° E visible
29 Jan -2.5 19:29:24 10° WSW 19:31:38 40° W 19:31:38 40° W visible
30 Jan -3.9 18:37:02 10° WSW 18:40:18 73° SSE 18:41:27 36° E visible
30 Jan -0.5 20:13:38 10° W 20:14:06 13° W 20:14:06 13° W visible
